Preview of NWS' New Version of Forecast
This preview is not operational and should not be used for support decisions.

Regional Weather Roundup (RWR)

Issued by National Weather Service (NWS)

                            
000
ASUS44 KMEG 172000
RWRTN 
TENNESSEE HOURLY STATE WEATHER ROUNDUP
NATIONAL WEATHER SERVICE MEMPHIS TN
300 PM CDT WED APR 17 2019

TNZ002-004-019-021-049-052-054-088>092-172100-
WEST TENNESSEE
  
CITY           SKY/WX    TMP DP  RH WIND       PRES   REMARKS
MEMPHIS INTL   CLOUDY    73  62  68 SW14      29.93F                  
NWS MEMPHIS      N/A     75 N/A N/A MISG        N/A                   
JACKSON        FAIR      74  57  55 S14G22    29.95F                  
DYERSBURG      FAIR      74  60  61 S9G21     29.91F                  
$$

TNZ008-025-027-028-033-062-065-066-172100-
NORTH MIDDLE TENNESSEE
  
CITY           SKY/WX    TMP DP  RH WIND       PRES   REMARKS
NASHVILLE      PTSUNNY   77  45  32 S16G23    29.97F                  
CLARKSVILLE    FAIR      79  48  33 S10       29.91F                  
SMYRNA         FAIR      77  51  40 S9G17     29.99F                  
CROSSVILLE     FAIR      75  41  29 S12G17    30.04F                  
$$

TNZ061-075-076-078-094-096-097-172100-
SOUTH MIDDLE TENNESSEE
  
CITY           SKY/WX    TMP DP  RH WIND       PRES   REMARKS
$$

TNZ017-018-042-046-047-172100-
NORTHEAST TENNESSEE
  
CITY           SKY/WX    TMP DP  RH WIND       PRES   REMARKS
TRI CITIES     CLOUDY    74  42  31 SW10      30.06F                  
$$

TNZ012-013-036-069-073-074-172100-
CENTRAL EAST TENNESSEE
  
CITY           SKY/WX    TMP DP  RH WIND       PRES   REMARKS
KNOXVILLE      CLOUDY    76  43  30 W9        30.02F                  
OAK RIDGE      FAIR      79  46  31 VRB6      30.04F                  
$$

TNZ083-085-099-172100-
SOUTHEAST TENNESSEE
  
CITY           SKY/WX    TMP DP  RH WIND       PRES   REMARKS
CHATTANOOGA    PTSUNNY   80  45  28 SE9       30.03F                  
$$

SKY/WX REPORTED AS FAIR MEANS FEW OR NO CLOUDS BELOW
12 THOUSAND FEET.